SCD 1 1 22490U 93009B 26254.71712087 .00000306 00000+0 32986-4 0 9990 2 22490 24.9708 33.2915 0041861 334.1878 162.2185 14.46148025773654 TECHSAT 1B (GO-32) 1 25397U 98043D 26254.95451838 .00000022 00000+0 29896-4 0 9993 2 25397 99.0149 249.9331 0001168 19.5424 340.5799 14.24442378463685 SCD 2 1 25504U 98060A 26255.22870461 .00000332 00000+0 41905-4 0 9999 2 25504 24.9947 255.3664 0016562 323.8536 128.4949 14.45551616472934 DLR-TUBSAT 1 25757U 99029B 26255.23250654 .00000030 00000+0 19198-4 0 9996 2 25757 98.6766 253.6305 0015379 85.9770 274.3182 14.52444379445884 TERRA 1 25994U 99068A 26255.19597661 .00000230 00000+0 55701-4 0 9991 2 25994 97.9374 301.2580 0001557 353.5066 78.9055 14.61158656422314 MAROC-TUBSAT 1 27004U 01056D 26255.04808528 -.00000036 00000+0 11862-4 0 9991 2 27004 99.8135 73.5748 0019056 281.1575 191.0821 13.70265535238084 AQUA 1 27424U 02022A 26255.23567314 .00000499 00000+0 10895-3 0 9993 2 27424 98.4385 226.3026 0001638 70.0506 346.6067 14.62198310295996 SHIYAN-1 (SY-1) 1 28220U 04012A 26255.22119388 .00010258 00000+0 29677-3 0 9994 2 28220 97.8647 339.0561 0006432 76.5282 283.6677 15.35807819224441 AURA 1 28376U 04026A 26255.14676633 .00000509 00000+0 11249-3 0 9997 2 28376 98.3508 212.3626 0001551 70.5401 289.5966 14.61437158178913 IRS-P5 (CARTOSAT-1) 1 28649U 05017A 26255.04520610 .00000756 00000+0 81331-4 0 9997 2 28649 97.5294 274.1725 0002516 106.3701 253.7795 14.91234082156764 SINAH 1 1 28893U 05043D 26255.18516125 .00000179 00000+0 43463-4 0 9991 2 28893 98.2983 30.0785 0014523 9.1560 350.9904 14.64207555113251 RESURS-DK 1 1 29228U 06021A 26255.01867404 .00001528 00000+0 91188-4 0 9998 2 29228 69.9301 114.7291 0005502 216.5050 143.5742 15.13503876115719 ARIRANG-2 (KOMPSAT-2) 1 29268U 06031A 26255.19950751 .00000208 00000+0 47386-4 0 9995 2 29268 97.8330 75.4600 0014861 152.3087 319.6163 14.64703270074214 LAPAN-TUBSAT 1 29709U 07001A 26255.18534600 .00000591 00000+0 74169-4 0 9997 2 29709 98.1396 256.4005 0010650 263.0868 96.9135 14.86026959064072 HAIYANG-1B 1 31113U 07010A 26254.91506443 .00000048 00000+0 34331-4 0 9997 2 31113 98.3601 233.4371 0012560 308.3562 51.6493 14.31045070013043 COSMO-SKYMED 1 1 31598U 07023A 26255.14662477 .00001924 00000+0 17051-3 0 9997 2 31598 97.8832 87.7566 0001547 93.8770 266.2628 14.97431913042803 TERRASAR-X 1 31698U 07026A 26254.87441691 .00000233 00000+0 14296-4 0 9994 2 31698 97.4466 261.3535 0001869 82.4667 277.6779 15.19150397066386 WORLDVIEW-1 (WV-1) 1 32060U 07041A 26255.19935265 .00004300 00000+0 17738-3 0 9998 2 32060 97.3870 13.6990 0001992 94.5433 265.6033 15.24583376056138 YAOGAN-3 1 32289U 07055A 26255.17388529 .00001586 00000+0 16586-3 0 9992 2 32289 97.8114 284.1899 0001816 92.5361 267.6065 14.91054113018830 COSMO-SKYMED 2 1 32376U 07059A 26255.18214493 .00000223 00000+0 34630-4 0 9990 2 32376 97.8914 77.5395 0001334 89.7412 270.3954 14.82147750014890 RADARSAT-2 1 32382U 07061A 26255.22154226 -.00000149 00000+0 40764-4 0 9995 2 32382 98.5813 260.9243 0001259 84.3108 275.8218 14.29981502978391 CARTOSAT-2A 1 32783U 08021A 26255.23627066 .00000737 00000+0 10564-3 0 9991 2 32783 97.7559 300.9411 0011516 181.3802 178.7380 14.79326670991673 HUANJING 1A (HJ-1A) 1 33320U 08041A 26255.20980448 .00000388 00000+0 52548-4 0 9995 2 33320 97.6771 237.7338 0017822 209.0966 150.9257 14.84156333971313 HUANJING 1B (HJ-1B) 1 33321U 08041B 26255.21916631 .00000295 00000+0 41864-4 0 9996 2 33321 97.6602 240.6467 0034577 257.7728 101.9613 14.83457709971317 GEOEYE 1 1 33331U 08042A 26255.18592295 .00000246 00000+0 55228-4 0 9995 2 33331 98.1268 328.0699 0005493 133.4797 226.6863 14.64688237962886 THEOS 1 33396U 08049A 26255.19284611 .00000258 00000+0 14060-3 0 9995 2 33396 98.5495 309.6149 0001326 89.3391 270.7938 14.20143563930314 COSMO-SKYMED 3 1 33412U 08054A 26255.18037016 .00001484 00000+0 10220-3 0 9990 2 33412 97.8152 115.1738 0015021 337.1766 22.8792 15.07413476970043 YAOGAN-4 1 33446U 08061A 26254.78521813 .00000647 00000+0 85423-4 0 9991 2 33446 97.9322 187.6686 0014968 143.6866 216.5366 14.83337421958500 GOSAT (IBUKI) 1 33492U 09002A 26255.07068192 .00000412 00000+0 81123-4 0 9990 2 33492 98.0956 5.0911 0001764 92.4101 267.7305 14.67532343944208 DEIMOS-1 1 35681U 09041A 26255.20608443 .00000427 00000+0 70133-4 0 9994 2 35681 97.7514 48.7246 0000258 60.3961 299.7275 14.75312520919717 DUBAISAT-1 1 35682U 09041B 26255.11367824 .00000629 00000+0 10049-3 0 9993 2 35682 98.0173 27.4838 0011094 146.0230 214.1692 14.75246848917918 OCEANSAT-2 1 35931U 09051A 26255.19771779 -.00000164 00000+0 86136-4 0 9993 2 35931 98.2416 233.3934 0015671 352.6203 7.4731 13.99667646891503 WORLDVIEW-2 (WV-2) 1 35946U 09055A 26255.14569160 .00000067 00000+0 36775-4 0 9992 2 35946 98.4726 327.4013 0003691 337.8198 22.2829 14.37919465888146 SMOS 1 36036U 09059A 26254.99061258 .00000193 00000+0 75352-4 0 9998 2 36036 98.4436 81.0639 0001363 81.4756 278.6587 14.39763983885945 YAOGAN-7 1 36110U 09069A 26255.14835676 .00000287 00000+0 46796-4 0 9997 2 36110 97.9923 140.4191 0025753 117.1340 243.2501 14.78076239902477 TANDEM-X 1 36605U 10030A 26253.95225962 .00000319 00000+0 18383-4 0 9991 2 36605 97.4470 260.4434 0001687 90.0913 270.0515 15.19150528899665 CARTOSAT-2B 1 36795U 10035A 26255.16099741 .00000173 00000+0 30846-4 0 9991 2 36795 97.9879 305.1160 0010031 271.6402 88.3660 14.78620927872705 YAOGAN-10 1 36834U 10038A 26255.24658772 .00001448 00000+0 17371-3 0 9995 2 36834 97.8953 277.9590 0001550 90.1445 335.6187 14.85573202870139 COSMO-SKYMED 4 1 37216U 10060A 26255.19481744 .00000093 00000+0 18249-4 0 9993 2 37216 97.8907 77.5537 0001399 82.9920 277.1452 14.82149547857459 RESOURCESAT-2 1 37387U 11015A 26255.15247087 .00000052 00000+0 43802-4 0 9997 2 37387 98.7566 321.9583 0011331 12.7571 347.3891 14.21609136798534 HAIYANG-2A 1 37781U 11043A 26255.20331354 -.00000086 00000+0 47474-4 0 9990 2 37781 99.3443 255.7466 0003550 128.2305 231.9162 13.71464032758598 RASAT 1 37791U 11044D 26255.21104022 .00000292 00000+0 59043-4 0 9996 2 37791 98.0568 345.2749 0019151 277.2658 167.0748 14.68234629805958 SRMSAT 1 37841U 11058D 26255.17154042 .00000362 00000+0 52917-4 0 9990 2 37841 19.9712 252.9645 0011978 81.3525 354.9000 14.11591835770123 PLEIADES 1A 1 38012U 11076F 26255.18472557 .00000100 00000+0 31348-4 0 9991 2 38012 98.1922 329.0896 0001157 101.7900 338.7103 14.58571374784678 ZIYUAN 1-02C (ZY 1-02C) 1 38038U 11079A 26255.17947649 .00000234 00000+0 91086-4 0 9993 2 38038 98.4004 320.6381 0007433 54.0754 23.4470 14.38271675771711 ARIRANG-3 (KOMPSAT-3) 1 38338U 12025B 26255.14282015 .00000255 00000+0 59780-4 0 9992 2 38338 98.1265 211.1432 0004913 187.8308 172.2818 14.62269518764059 EXACTVIEW-1 (ADS-1B) 1 38709U 12039C 26254.95640792 .00000052 00000+0 42182-4 0 9990 2 38709 98.9868 14.3447 0009827 282.6501 77.3579 14.25005152735064 SPOT 6 1 38755U 12047A 26255.18512351 .00000162 00000+0 44623-4 0 9999 2 38755 98.2051 321.4398 0001640 88.6947 271.4440 14.58561928745735 PLEIADES 1B 1 39019U 12068A 26255.20380741 .00000140 00000+0 39883-4 0 9993 2 39019 98.1893 329.0259 0001251 99.8292 260.3049 14.58564479733538 GOKTURK 2 1 39030U 12073A 26255.15057207 .00000052 00000+0 14473-4 0 9994 2 39030 97.6785 88.2206 0002159 75.4069 284.7381 14.75610098737330 LANDSAT 8 1 39084U 13008A 26255.16681419 .00000200 00000+0 54566-4 0 9993 2 39084 98.2226 324.2342 0001329 94.9581 265.1769 14.57098078710560 SARAL 1 39086U 13009A 26255.18738610 .00000032 00000+0 27690-4 0 9995 2 39086 98.5565 80.6670 0002691 53.4831 306.6601 14.32906752708067 GAOFEN-1 1 39150U 13018A 26255.21198038 .00000038 00000+0 12770-4 0 9994 2 39150 97.9033 325.4764 0016923 350.7320 9.3575 14.76534127721080 VNREDSAT 1 1 39160U 13021B 26255.18306064 .00000343 00000+0 72834-4 0 9991 2 39160 97.9005 305.2151 0001289 78.8878 281.2471 14.64742678713021 ARIRANG-5 (KOMPSAT-5) 1 39227U 13042A 26255.15904999 .00000131 00000+0 13688-4 0 9993 2 39227 97.6209 80.6500 0003137 165.3745 194.7572 15.04541672716938 SKYSAT-A 1 39418U 13066C 26255.08299156 .00002349 00000+0 13455-3 0 9999 2 39418 97.3733 301.6959 0021599 18.0720 342.1274 15.13388300701627 DUBAISAT-2 1 39419U 13066D 26255.18547727 .00003892 00000+0 23831-3 0 9994 2 39419 97.4644 243.1222 0012691 93.0877 267.1805 15.10712280699528 GPM-CORE 1 39574U 14009C 26255.14680882 .00008339 00000+0 18145-3 0 9993 2 39574 64.9725 16.7350 0011221 259.7167 100.2708 15.44884916711242 SENTINEL-1A 1 39634U 14016A 26255.23499403 .00000002 00000+0 99556-5 0 9991 2 39634 98.1586 261.4072 0001431 85.4582 274.6782 14.59804053662714 KAZEOSAT 1 1 39731U 14024A 26255.17043023 .00000102 00000+0 44091-4 0 9998 2 39731 98.3145 325.4192 0001414 92.9084 267.2268 14.42063116651095 ALOS-2 1 39766U 14029A 26255.25028045 .00001193 00000+0 16657-3 0 9994 2 39766 97.9232 351.1675 0001519 92.8347 267.3038 14.79469386664453 KAZEOSAT 2 1 40010U 14033A 26255.18963955 .00000481 00000+0 61422-4 0 9993 2 40010 97.5364 90.1985 0009721 39.8255 320.3673 14.85557433661871 HODOYOSHI-4 1 40011U 14033B 26255.17194696 .00000111 00000+0 17627-4 0 9999 2 40011 97.5475 75.8262 0024229 20.5342 339.6843 14.88301519661740 DEIMOS-2 1 40013U 14033D 26255.12800897 .00001306 00000+0 12791-3 0 9996 2 40013 97.5684 126.5112 0002240 67.7054 292.4403 14.93921470650706 HODOYOSHI-3 1 40015U 14033F 26255.01248704 .00000804 00000+0 98172-4 0 9999 2 40015 97.6525 54.6221 0034136 69.5710 290.9166 14.85552610660519 SPOT 7 1 40053U 14034A 26255.16070823 .00000312 00000+0 72736-4 0 9995 2 40053 98.0554 315.3762 0001257 77.9618 282.1724 14.61019435649835 SKYSAT-B 1 40072U 14037D 26254.86407110 .00000961 00000+0 11086-3 0 9998 2 40072 98.3937 218.8236 0005759 11.0569 349.0772 14.88210501658856 WORLDVIEW-3 (WV-3) 1 40115U 14048A 26255.15179852 .00000492 00000+0 63746-4 0 9990 2 40115 97.8498 328.7578 0002450 60.9965 299.1496 14.85137041654812 GAOFEN-2 1 40118U 14049A 26255.20060778 .00000367 00000+0 54327-4 0 9992 2 40118 98.0037 319.2907 0006434 321.0648 39.0100 14.80995108652118 YAOGAN-21 1 40143U 14053A 26255.19208303 .00004282 00000+0 16237-3 0 9998 2 40143 97.1402 291.7223 0009050 134.3903 225.8079 15.27343259668239 YAOGAN-22 1 40275U 14063A 26255.03587171 -.00000060 00000+0 34836-4 0 9998 2 40275 100.7859 47.8038 0006255 0.3337 359.7777 13.15533224571236 ASNARO 1 40298U 14070A 26255.14624627 .00006285 00000+0 29774-3 0 9999 2 40298 97.3392 328.8891 0003913 195.4707 164.6409 15.19659375657218 YAOGAN-24 1 40310U 14072A 26255.18553345 .00000193 00000+0 35655-4 0 9996 2 40310 98.1610 33.3091 0014305 351.5693 8.5274 14.76178524636555 CBERS 4 1 40336U 14079A 26255.23380887 .00000143 00000+0 64394-4 0 9993 2 40336 98.3454 309.2974 0001948 100.0729 260.0677 14.35518479616442 YAOGAN-26 1 40362U 14088A 26255.15002480 .00017122 00000+0 29992-3 0 9992 2 40362 97.0687 253.5482 0006043 88.4446 271.7499 15.50633961651167 SMAP 1 40376U 15003A 26255.19116122 .00000241 00000+0 55691-4 0 9998 2 40376 98.1315 261.0675 0001443 91.8137 268.3230 14.63368875620347 KOMPSAT-3A 1 40536U 15014A 26255.23727992 .00020699 00000+0 25840-3 0 9997 2 40536 97.6925 253.2980 0048795 214.9315 144.8735 15.58422328635359 SENTINEL-2A 1 40697U 15028A 26255.20767484 -.00000027 00000+0 62345-5 0 9994 2 40697 98.5631 328.7951 0001180 82.9781 277.1536 14.30820097586172 GAOFEN-8 1 40701U 15030A 26255.19125677 .00012642 00000+0 23625-3 0 9994 2 40701 97.6851 93.9721 0006860 235.3321 124.7283 15.48875026624904 CARBONITE 1 (CBNT-1) 1 40718U 15032D 26255.18040351 .00001267 00000+0 15879-3 0 9991 2 40718 97.6555 69.6500 0014845 14.6537 345.5105 14.83815917602247 YAOGAN-27 1 40878U 15040A 26255.22425286 .00000335 00000+0 99287-3 0 9996 2 40878 100.1255 237.8627 0008577 18.6970 341.4458 13.16075989529112 GAOFEN-9 01 1 40894U 15047A 26255.23936124 .00000504 00000+0 67880-4 0 9993 2 40894 97.6226 286.9612 0026429 211.5846 148.3784 14.83016590593091 YAOGAN-28 1 41026U 15064A 26255.22863647 .00005422 00000+0 19855-3 0 9990 2 41026 97.3198 31.8413 0009096 238.0912 121.9444 15.28403651603976 YAOGAN-29 1 41038U 15069A 26255.20984947 -.00000056 00000+0 21194-6 0 9994 2 41038 97.9994 283.9648 0002938 92.6348 267.5202 14.83142060583525 KENT RIDGE 1 1 41167U 15077B 26254.85351669 .00003188 00000+0 98290-4 0 9992 2 41167 14.9806 341.2276 0008136 22.9524 337.1161 15.23578370594333 GAOFEN-4 1 41194U 15083A 26255.03009388 -.00000350 00000+0 00000+0 0 9994 2 41194 0.5759 83.3630 0003695 139.9172 244.3099 1.00271738039401 JASON-3 1 41240U 16002A 26255.14837558 -.00000028 00000+0 13621-3 0 9997 2 41240 66.0419 303.0091 0008558 267.0219 92.9820 12.87627403498447 SENTINEL-3A 1 41335U 16011A 26255.17758014 .00000059 00000+0 42280-4 0 9991 2 41335 98.6288 321.2991 0001093 105.8058 254.3243 14.26734404550464 ZIYUAN 3-02 (ZY 3-02) 1 41556U 16033A 26255.20939743 .00003664 00000+0 16682-3 0 9995 2 41556 97.3773 329.2780 0012907 2.1699 357.9591 15.21246886571214 CARTOSAT-2C 1 41599U 16040A 26255.19881034 .00002429 00000+0 11841-3 0 9997 2 41599 97.4399 313.9369 0008823 181.2779 178.8434 15.19250004566921 SKYSAT-C1 1 41601U 16040C 26255.00283115 .00006615 00000+0 18145-3 0 9992 2 41601 96.9514 282.0704 0004249 80.3328 279.8397 15.37570309571204 LAPAN-A3 1 41603U 16040E 26255.24659821 .00002622 00000+0 82939-4 0 9998 2 41603 97.1561 248.5945 0011979 67.4494 292.8015 15.33581344568152 GAOFEN-3 1 41727U 16049A 26255.22248336 -.00000084 00000+0 12389-4 0 9990 2 41727 98.4044 261.7085 0000897 75.7466 284.3823 14.42224764531195 SKYSAT-C4 1 41771U 16058B 26255.04217447 .00012967 00000+0 22406-3 0 9990 2 41771 96.9155 273.3185 0000496 44.1443 315.9850 15.51094270558929 SKYSAT-C5 1 41772U 16058C 26255.04842749 .00005025 00000+0 15421-3 0 9996 2 41772 97.0397 291.7347 0001978 24.1135 336.0201 15.34168806557062 SKYSAT-C2 1 41773U 16058D 26255.03204933 .00008544 00000+0 19037-3 0 9999 2 41773 97.0145 273.9556 0005067 93.4465 266.7364 15.43818551558447 SKYSAT-C3 1 41774U 16058E 26255.05613226 .00019279 00000+0 27757-3 0 9996 2 41774 96.8952 282.7486 0002076 75.2432 284.9054 15.56070915559605 ALSAT-1B 1 41785U 16059C 26255.23151362 .00000153 00000+0 31600-4 0 9991 2 41785 97.7783 260.2549 0008301 314.3130 45.7397 14.72330122533385 PATHFINDER 1 1 41787U 16059E 26254.99083771 .00000393 00000+0 76761-4 0 9996 2 41787 97.8227 250.3772 0027011 290.7308 69.1003 14.67753091532440 SCATSAT 1 1 41790U 16059H 26255.18021794 .00000679 00000+0 95766-4 0 9992 2 41790 98.1110 319.8133 0053641 328.8159 30.9872 14.79699226114455 GOKTURK 1A 1 41875U 16073A 26255.18699331 .00000256 00000+0 59371-4 0 9993 2 41875 98.1549 148.5985 0001559 77.8840 282.2536 14.62748015521540 RESOURCESAT-2A 1 41877U 16074A 26255.20414571 -.00000064 00000+0 92336-5 0 9997 2 41877 98.7472 327.9679 0002351 158.6834 201.4442 14.21611542506662 CARTOSAT-2D 1 41948U 17008A 26255.16376661 .00003615 00000+0 17444-3 0 9995 2 41948 97.4025 312.8023 0003607 310.0854 50.0064 15.19309213530783 SENTINEL-2B 1 42063U 17013A 26255.20048720 -.00000027 00000+0 63336-5 0 9995 2 42063 98.5731 328.7198 0001220 87.4582 272.6740 14.30813175497086 CARTOSAT-2E 1 42767U 17036C 26255.18210060 .00003110 00000+0 15074-3 0 9995 2 42767 97.4189 313.5075 0003757 29.2649 330.8796 15.19258445511359 FORMOSAT-5 1 42920U 17049A 26255.15337191 .00000078 00000+0 30783-4 0 9997 2 42920 98.2192 328.5029 0011680 169.8384 190.3049 14.50907132479282 SENTINEL-5P 1 42969U 17064A 26255.11072933 .00000021 00000+0 31034-4 0 9991 2 42969 98.7974 196.6403 0001190 76.9576 283.1733 14.19531140461890 SKYSAT-C11 1 42987U 17068A 26255.15899265 .00030571 00000+0 34443-3 0 9993 2 42987 97.4452 48.1330 0001054 66.3428 293.7940 15.62501942496807 SKYSAT-C10 1 42988U 17068B 26254.90849454 .00007380 00000+0 21278-3 0 9995 2 42988 97.4623 32.7512 0001401 86.3370 273.8034 15.36017756495665 SKYSAT-C9 1 42989U 17068C 26254.97111015 .00011069 00000+0 24895-3 0 9995 2 42989 97.4544 34.6132 0008004 174.2238 185.9104 15.43466935496132 SKYSAT-C8 1 42990U 17068D 26254.93980056 .00008537 00000+0 22699-3 0 9998 2 42990 97.4641 32.9218 0001593 90.6883 269.4544 15.38491765495645 SKYSAT-C7 1 42991U 17068E 26254.93643911 .00008678 00000+0 23095-3 0 9992 2 42991 97.4655 33.9143 0006418 145.4966 214.6696 15.38438048495703 SKYSAT-C6 1 42992U 17068F 26255.15689170 .00006678 00000+0 20520-3 0 9993 2 42992 97.4704 33.6785 0001511 138.2606 221.8752 15.34045380495654 CARTOSAT-2F 1 43111U 18004A 26255.14992389 .00003267 00000+0 15823-3 0 9997 2 43111 97.4708 313.8921 0000986 27.2028 332.9258 15.19262618480531 GAOFEN-1 02 1 43259U 18031A 26255.18064648 .00000247 00000+0 42923-4 0 9999 2 43259 98.0454 317.4253 0004223 89.9189 270.2504 14.76477566455530 GAOFEN-1 03 1 43260U 18031B 26255.22639836 -.00000028 00000+0 34148-5 0 9992 2 43260 98.0435 317.3192 0003694 131.2924 228.8604 14.76443843455532 GAOFEN-1 04 1 43262U 18031D 26255.20212057 .00000419 00000+0 67649-4 0 9998 2 43262 98.0455 317.4974 0002143 106.9086 253.2358 14.76474053455525 SENTINEL-3B 1 43437U 18039A 26255.15071916 .00000059 00000+0 42431-4 0 9993 2 43437 98.6285 321.4222 0001429 79.1773 280.9568 14.26736730436524 GAOFEN-5 01 1 43461U 18043A 26254.92466721 .00000213 00000+0 53778-4 0 9999 2 43461 98.4681 228.3803 0002273 137.2207 222.9170 14.60655422444356 GAOFEN-6 1 43484U 18048A 26255.22644137 .00000688 00000+0 10645-3 0 9993 2 43484 98.0896 318.0443 0009314 249.0526 110.9687 14.76439110446230 GAOFEN-11 01 1 43585U 18063A 26255.22233109 .00008579 00000+0 11742-3 0 9991 2 43585 97.1207 321.9565 0004076 33.1322 327.0189 15.57642284453887 ICESAT-2 1 43613U 18070A 26255.11121411 .00006939 00000+0 25226-3 0 9991 2 43613 92.0035 314.4592 0005536 114.5516 245.6311 15.28228512445739 HYSIS 1 43719U 18096A 26255.16796807 .00000971 00000+0 13959-3 0 9998 2 43719 97.9771 321.1967 0001120 107.6639 252.4695 14.78649791420275 KAZSTSAT 1 43783U 18099AB 26255.02110130 .00001041 00000+0 88028-4 0 9995 2 43783 97.4213 283.0035 0013131 115.7659 244.4922 15.00018749424324 SAUDISAT 5A 1 43831U 18102A 26255.17206896 .00003948 00000+0 14351-3 0 9990 2 43831 97.2980 315.0801 0009515 175.1077 185.0258 15.28804507428960 SAUDISAT 5B 1 43833U 18102C 26255.17745529 .00003815 00000+0 13785-3 0 9996 2 43833 97.3093 318.3126 0010152 178.0661 182.0621 15.29022365429084 GAOFEN-10R 1 44622U 19066A 26255.18736955 .00000741 00000+0 97572-4 0 9999 2 44622 98.0587 209.4394 0004870 199.0207 161.0825 14.83160716375279 CARTOSAT-3 1 44804U 19081A 26255.16297325 .00002434 00000+0 11873-3 0 9999 2 44804 97.4225 315.5876 0010711 204.7619 155.3103 15.19200538376676 GAOFEN-12 01 1 44819U 19082A 26255.19872850 .00000226 00000+0 36181-4 0 9998 2 44819 97.8147 259.3017 0002434 98.5884 261.5605 14.80516565366962 CSG-1 1 44873U 19092A 26255.13998316 .00000227 00000+0 35053-4 0 9997 2 44873 97.8917 77.5047 0001421 86.2662 273.8713 14.82155838364354 NEMO-HD 1 46277U 20061F 26255.15449795 .00007814 00000+0 16112-3 0 9992 2 46277 97.1830 316.2831 0002641 90.3792 269.7760 15.46159826335413 SENTINEL-6A 1 46984U 20086A 26255.14015095 -.00000029 00000+0 13751-3 0 9993 2 46984 66.0425 314.4511 0007889 268.9647 91.0464 12.80929289271463 CAS500-1 1 47932U 21022A 26255.14903616 .00004210 00000+0 19752-3 0 9995 2 47932 97.3768 148.5790 0005029 4.0819 356.0457 15.20181248303973 GAOFEN-12 02 1 48079U 21026A 26255.21913417 .00000223 00000+0 36224-4 0 9994 2 48079 97.9994 253.0743 0003921 328.7923 31.3055 14.80352905294638 PLEIADES NEO 3 1 48268U 21034A 26255.16743660 .00000229 00000+0 35771-4 0 9990 2 48268 97.8958 328.6836 0001480 85.7121 274.4261 14.81672373290536 PLEIADES NEO 4 1 49070U 21073E 26255.20119014 .00000212 00000+0 33605-4 0 9996 2 49070 97.8957 328.7130 0001516 86.5038 273.6349 14.81673342274257 LANDSAT 9 1 49260U 21088A 26255.20123477 .00000209 00000+0 56390-4 0 9993 2 49260 98.2207 324.2909 0001484 100.3913 259.7453 14.57109712263670 CSG-2 1 51444U 22008A 26255.17370936 -.00000235 00000+0 22977-4 0 9997 2 51444 97.8906 77.5297 0001416 80.1570 279.9803 14.82149580249475 GAOFEN-12 03 1 52912U 22069A 26255.12764927 .00000990 00000+0 13709-3 0 9996 2 52912 97.8141 140.7515 0000911 109.6343 250.4968 14.80150474227471 SWOT 1 54754U 22173A 26255.16241830 .00000085 00000+0 59091-4 0 9995 2 54754 77.6079 277.9003 0000184 198.9789 161.1355 14.00171280191327 GAOFEN-12 04 1 57654U 23123A 26255.22656505 .00000621 00000+0 89202-4 0 9992 2 57654 97.9066 171.9165 0002268 160.5481 199.5818 14.79861294165508 PARS 1 1 59065U 24039Q 26255.20848412 .00008933 00000+0 17628-3 0 9991 2 59065 97.4915 239.0242 0010033 147.7163 212.4703 15.47366024142093 RESURS-P 4 1 59371U 24061A 26255.17923514 .00002246 00000+0 73863-4 0 9994 2 59371 97.2821 201.6174 0001078 126.7893 233.3448 15.32566273137085 LEGION 1 1 59625U 24081A 26255.16818499 .00002653 00000+0 13685-3 0 9999 2 59625 97.4961 332.0982 0010701 70.3253 289.9134 15.17179326130722 LEGION 2 1 59626U 24081B 26255.19922955 .00002352 00000+0 12169-3 0 9998 2 59626 97.4961 332.2243 0012243 40.7326 319.4820 15.17163342130733 ALOS-4 (DAICHI-4) 1 60182U 24123A 26254.86382536 .00000949 00000+0 13398-3 0 9997 2 60182 97.9220 350.7919 0001448 98.8523 261.2852 14.79479006118692 LEGION 3 1 60452U 24146A 26255.12083007 .00002168 00000+0 12442-3 0 9997 2 60452 45.0011 284.4592 0008441 313.3748 46.6426 15.16013378115213 LEGION 4 1 60453U 24146B 26254.72445852 .00002681 00000+0 15061-3 0 9993 2 60453 45.0026 18.4411 0008587 79.5608 280.6238 15.16029808114004 SENTINEL-2C 1 60989U 24157A 26255.16553249 .00000068 00000+0 42712-4 0 9999 2 60989 98.5731 328.6890 0001403 89.0134 271.1210 14.30812868105423 IONOSFERA-M 1 1 61735U 24199A 26255.11620720 .00000031 00000+0 33404-4 0 9997 2 61735 98.7023 127.3151 0000289 146.1396 213.9801 14.22767873140064 IONOSFERA-M 2 1 61736U 24199B 26255.15030921 .00000027 00000+0 31511-4 0 9992 2 61736 98.7022 127.2587 0001987 78.1842 281.9559 14.22771058143194 PRSC-EO1 1 62725U 25012A 26255.22351456 .00004894 00000+0 24680-3 0 9997 2 62725 97.4157 325.9429 0004433 346.3314 13.7799 15.17591890091393 BIOMASS 1 63772U 25090A 26254.97118580 .00000665 00000+0 12728-3 0 9998 2 63772 98.0764 81.0388 0001237 89.5948 270.5398 14.66985692073410 GOSAT-GW (IBUKI GW) 1 64694U 25141A 26255.18970536 .00000302 00000+0 61609-4 0 9991 2 64694 98.0597 191.0988 0001412 86.8847 273.2519 14.67552268064605 IONOSFERA-M 3 1 64876U 25155A 26255.17550640 .00000019 00000+0 28223-4 0 9997 2 64876 98.6132 214.9282 0001318 20.5939 339.5292 14.21498880058765 IONOSFERA-M 4 1 64877U 25155B 26255.21019683 .00000021 00000+0 29449-4 0 9994 2 64877 98.6125 214.8787 0000934 47.7831 312.3426 14.21501485058766 MICROCARB 1 64899U 25156A 26255.17737240 .00000336 00000+0 60329-4 0 9991 2 64899 98.0106 331.0325 0017422 350.9364 9.1527 14.72844623060770 CO3D 3 1 64900U 25156B 26255.13953333 .00002929 00000+0 13835-3 0 9992 2 64900 97.4344 332.5828 0001010 117.8775 242.2563 15.20201710062743 CO3D 4 1 64901U 25156C 26255.13968814 .00003059 00000+0 14439-3 0 9999 2 64901 97.4344 332.5828 0001771 43.1038 317.0335 15.20201230062746 CO3D 2 1 64902U 25156D 26255.17216490 .00001357 00000+0 65803-4 0 9991 2 64902 97.4343 332.5136 0001465 103.0081 257.1318 15.20203528062749 CO3D 1 1 64903U 25156E 26255.17231663 .00002657 00000+0 12583-3 0 9991 2 64903 97.4346 332.5139 0001269 98.7126 261.4253 15.20204607062743 PRSC-S1 1 65055U 25164A 26255.16226707 .00003449 00000+0 23763-3 0 9993 2 65055 41.1299 157.7402 0007792 233.1528 126.8572 15.07040792061557 SENTINEL-6B 1 66514U 25264A 26254.51589229 -.00000030 00000+0 13376-3 0 9997 2 66514 66.0427 315.8737 0007857 267.7960 92.2156 12.80929062038226 CAS500-3 1 66655U 25274F 26254.80813801 .00000873 00000+0 10015-3 0 9993 2 66655 97.7424 180.8748 0003395 327.8778 32.2232 14.88318001043039 CSG-3 1 67304U 26001A 26254.74757463 .00000193 00000+0 30830-4 0 9991 2 67304 97.8915 77.1166 0001373 87.1271 273.0099 14.82152593037289 PRSC-E03 1 68835U 26092A 26255.19656479 .00001651 00000+0 11528-3 0 9998 2 68835 38.0016 296.4494 0004286 338.0560 22.0018 15.07040493021080 CAS500-2 1 69013U 26100AK 26254.69553051 .00004050 00000+0 18969-3 0 9995 2 69013 97.3762 150.7847 0011234 75.8592 284.3891 15.20219217019953